Huron, SD

1:53 PM CST on February 06, 2016 (GMT -0600)
Huron Regional

Weather History for KHON - May, 2013

Change the Weather History Date:

Monday, May 20, 2013

  Actual Average Record
Temperature  
Mean Temperature 57 °F 59 °F  
Max Temperature 61 °F 71 °F 98 °F (1934)
Min Temperature 53 °F 48 °F 24 °F (1895)
Degree Days  
Heating Degree Days 8 7  
Month to date heating degree days 201 187  
Since 1 July heating degree days 8082 7565  
Cooling Degree Days 0 1  
Month to date cooling degree days 29 17  
Year to date cooling degree days 29 21  
Growing Degree Days 7 (Base 50)    
Moisture  
Dew Point 56 °F    
Average Humidity 92    
Maximum Humidity 100    
Minimum Humidity 84    
Precipitation  
Precipitation 0.52 in 0.10 in 2.68 in (1914)
Month to date precipitation 2.22 1.92  
Year to date precipitation 7.32 6.79  
Snow  
Snow 0.00 in 0.00 in T in (1931)
Month to date snowfall 0.0 0.1  
Since 1 July snowfall 60.1 44.0  
Snow Depth 0.00 in    
Sea Level Pressure  
Sea Level Pressure 29.47 in    
Wind  
Wind Speed 9 mph (West)    
Max Wind Speed 17 mph    
Max Gust Speed 21 mph    
Visibility 8 miles    
Events Rain    
T = Trace of Precipitation, MM = Missing Value Source: NWS Daily Summary

Daily Weather History Graph

Daily Weather History Graph

Search for Another Location

Airport or City:

Trip Planner

Search our weather history database for the weather conditions in past years. The results will help you decide how hot, cold, wet, or windy it might be!

Date:

Astronomy

May. 20, 2013 Rise Set
Actual Time 6:00 AM CDT 8:59 PM CDT
Civil Twilight 5:26 AM CDT 9:33 PM CDT
Nautical Twilight 4:42 AM CDT 10:17 PM CDT
Astronomical Twilight 3:50 AM CDT 11:10 PM CDT
Moon 3:58 PM CDT (5/20) 3:07 AM CDT (5/20)
Length of Visible Light 16h 07m
Length of Day
14h 58m
Waxing Gibbous, 75% of the Moon is Illuminated
May 20
Waxing Gibbous
May 24
Full
May 31
Last Quarter
Jun 8
New
Jun 16
First Quarter

Hourly Weather History & Observations

Time (CDT) Temp. Dew Point Humidity Pressure Visibility Wind Dir Wind Speed Gust Speed Precip Events Conditions
12:55 AM 59.0 °F 55.9 °F 90% 29.51 in 10.0 mi NNW 6.9 mph - N/A   Overcast
1:55 AM 57.9 °F 55.9 °F 93% 29.49 in 10.0 mi NW 9.2 mph - N/A   Overcast
2:43 AM 57.2 °F 55.4 °F 94% 29.50 in 7.0 mi West 8.1 mph - 0.01 in Rain Light Rain
2:55 AM 57.2 °F 55.4 °F 94% 29.50 in 10.0 mi WSW 8.1 mph - N/A Rain Light Rain
3:55 AM 55.9 °F 55.9 °F 100% 29.47 in 9.0 mi WNW 10.4 mph - 0.00 in Rain Light Rain
4:55 AM 55.9 °F 55.0 °F 97% 29.46 in 10.0 mi WNW 9.2 mph - 0.08 in Rain Light Rain
5:19 AM 55.4 °F 55.4 °F 100% 29.48 in 5.0 mi WSW 8.1 mph - 0.03 in Rain Rain
5:41 AM 55.4 °F 55.4 °F 100% 29.46 in 5.0 mi West 9.2 mph - 0.08 in Rain Rain
5:55 AM 55.0 °F 55.0 °F 100% 29.46 in 7.0 mi West 6.9 mph - 0.10 in Rain Light Rain
6:03 AM 55.4 °F 55.4 °F 100% 29.47 in 6.0 mi WNW 8.1 mph - 0.01 in Rain Rain
6:18 AM 55.4 °F 55.4 °F 100% 29.46 in 5.0 mi West 8.1 mph - 0.05 in Rain Rain
6:36 AM 53.6 °F 53.6 °F 100% 29.46 in 4.0 mi WNW 9.2 mph - 0.09 in Rain Light Rain
6:55 AM 55.4 °F 53.6 °F 94% 29.45 in 10.0 mi NW 10.4 mph - N/A Rain Light Rain
7:55 AM 55.0 °F 55.0 °F 100% 29.44 in 10.0 mi West 8.1 mph - 0.01 in Rain Light Rain
8:01 AM 55.4 °F 55.4 °F 100% 29.46 in 10.0 mi West 8.1 mph - 0.00 in Rain Light Rain
8:18 AM 55.4 °F 55.4 °F 100% 29.46 in 10.0 mi WSW 8.1 mph - 0.00 in   Overcast
8:45 AM 55.4 °F 53.6 °F 94% 29.47 in 9.0 mi West 9.2 mph - 0.00 in   Overcast
8:52 AM 55.4 °F 53.6 °F 94% 29.47 in 5.0 mi West 6.9 mph - 0.00 in Rain Light Rain
8:55 AM 55.4 °F 53.6 °F 94% 29.48 in 4.0 mi West 4.6 mph - N/A Rain Light Rain
9:20 AM 55.4 °F 55.4 °F 100% 29.48 in 5.0 mi West 4.6 mph - 0.01 in Rain Light Rain
9:38 AM 55.4 °F 55.4 °F 100% 29.48 in 2.5 mi West 4.6 mph - 0.02 in Rain Light Rain
9:45 AM 55.4 °F 55.4 °F 100% 29.48 in 4.0 mi West 4.6 mph - 0.03 in Rain Light Rain
9:55 AM 55.9 °F 55.9 °F 100% 29.47 in 4.0 mi WSW 5.8 mph - 0.03 in Rain Light Rain
10:21 AM 57.2 °F 55.4 °F 94% 29.48 in 6.0 mi SW 6.9 mph - 0.00 in   Overcast
10:52 AM 57.2 °F 55.4 °F 94% 29.47 in 8.0 mi West 8.1 mph - 0.00 in   Overcast
10:55 AM 57.0 °F 55.0 °F 93% 29.47 in 9.0 mi WNW 9.2 mph - 0.00 in   Overcast
11:29 AM 57.2 °F 55.4 °F 94% 29.47 in 10.0 mi West 8.1 mph - N/A   Overcast
11:32 AM 57.2 °F 55.4 °F 94% 29.47 in 10.0 mi West 6.9 mph - N/A   Overcast
11:44 AM 57.2 °F 55.4 °F 94% 29.47 in 10.0 mi West 8.1 mph - N/A   Overcast
11:55 AM 57.9 °F 55.9 °F 93% 29.47 in 10.0 mi WNW 6.9 mph - N/A   Overcast
12:32 PM 60.8 °F 55.4 °F 82% 29.47 in 10.0 mi West 10.4 mph - N/A   Overcast
12:55 PM 60.1 °F 55.9 °F 86% 29.46 in 10.0 mi West 8.1 mph - N/A   Overcast
1:55 PM 61.0 °F 55.9 °F 83% 29.46 in 10.0 mi West 9.2 mph - N/A   Overcast
2:05 PM 60.8 °F 55.4 °F 82% 29.46 in 10.0 mi West 8.1 mph - N/A   Overcast
2:37 PM 60.8 °F 55.4 °F 82% 29.46 in 10.0 mi SSW 8.1 mph - 0.00 in   Overcast
2:55 PM 60.1 °F 57.0 °F 90% 29.46 in 7.0 mi WSW 9.2 mph - 0.00 in Rain Light Rain
3:04 PM 59.0 °F 57.2 °F 94% 29.46 in 2.0 mi SW 8.1 mph - 0.02 in Rain Rain
3:23 PM 57.2 °F 57.2 °F 100% 29.47 in 2.0 mi WSW 9.2 mph - 0.07 in Rain Rain
3:35 PM 57.2 °F 57.2 °F 100% 29.46 in 4.0 mi SW 8.1 mph - 0.08 in Rain Light Rain
3:44 PM 59.0 °F 57.2 °F 94% 29.46 in 5.0 mi SW 9.2 mph - 0.09 in Rain Light Rain
3:55 PM 59.0 °F 57.9 °F 96% 29.47 in 3.0 mi WSW 11.5 mph - 0.10 in Rain Light Rain
4:04 PM 57.2 °F 57.2 °F 100% 29.46 in 5.0 mi SW 8.1 mph - 0.01 in Rain Light Rain
4:24 PM 57.2 °F 57.2 °F 100% 29.46 in 2.5 mi SW 11.5 mph - 0.01 in Rain Light Rain
4:34 PM 57.2 °F 57.2 °F 100% 29.46 in 1.8 mi SW 12.7 mph - 0.03 in Rain Light Rain
4:53 PM 57.2 °F 57.2 °F 100% 29.47 in 3.0 mi NW 9.2 mph - 0.07 in Rain Light Rain
4:55 PM 57.9 °F 57.0 °F 97% 29.47 in 4.0 mi NW 10.4 mph - 0.07 in Rain Light Rain
5:35 PM 57.2 °F 57.2 °F 100% 29.47 in 8.0 mi WNW 13.8 mph 18.4 mph 0.02 in Rain Light Rain
5:55 PM 57.9 °F 57.0 °F 97% 29.47 in 10.0 mi NW 8.1 mph - 0.02 in Rain Light Rain
6:07 PM 57.2 °F 57.2 °F 100% 29.47 in 10.0 mi NW 12.7 mph - 0.00 in Rain Light Rain
6:41 PM 57.2 °F 57.2 °F 100% 29.47 in 7.0 mi WNW 11.5 mph - 0.01 in Rain Light Rain
6:49 PM 57.2 °F 55.4 °F 94% 29.47 in 9.0 mi WNW 10.4 mph - 0.01 in Rain Light Rain
6:50 PM 57.9 °F 57.0 °F 97% 29.47 in 9.0 mi WNW 9.2 mph - 0.01 in Rain Light Rain
6:57 PM 57.2 °F 57.2 °F 100% 29.47 in 10.0 mi WNW 9.2 mph - 0.00 in Rain Light Rain
7:04 PM 57.2 °F 55.4 °F 94% 29.47 in 10.0 mi West 10.4 mph - 0.00 in Rain Light Rain
7:13 PM 57.2 °F 55.4 °F 94% 29.47 in 10.0 mi WNW 9.2 mph - 0.00 in Rain Light Rain
7:47 PM 57.2 °F 55.4 °F 94% 29.48 in 10.0 mi West 10.4 mph - 0.00 in   Overcast
7:55 PM 57.0 °F 55.9 °F 96% 29.48 in 10.0 mi West 8.1 mph - 0.00 in   Overcast
8:35 PM 57.2 °F 55.4 °F 94% 29.48 in 10.0 mi West 11.5 mph - N/A   Overcast
8:55 PM 57.2 °F 55.4 °F 94% 29.47 in 10.0 mi West 11.5 mph - N/A   Overcast
9:35 PM 57.2 °F 55.4 °F 94% 29.48 in 10.0 mi West 11.5 mph - N/A   Overcast
9:55 PM 55.9 °F 55.0 °F 97% 29.49 in 10.0 mi West 12.7 mph - N/A   Overcast
10:21 PM 55.4 °F 55.4 °F 100% 29.48 in 10.0 mi West 11.5 mph - N/A   Overcast
10:46 PM 55.4 °F 55.4 °F 100% 29.48 in 7.0 mi WNW 12.7 mph 20.7 mph N/A   Overcast
10:55 PM 55.0 °F 55.0 °F 100% 29.48 in 8.0 mi WNW 12.7 mph - N/A   Overcast
11:14 PM 53.6 °F 53.6 °F 100% 29.48 in 10.0 mi WNW 15.0 mph - N/A   Overcast
11:38 PM 53.6 °F 53.6 °F 100% 29.49 in 8.0 mi WNW 13.8 mph - N/A   Overcast
11:55 PM 54.0 °F 53.1 °F 97% 29.49 in 9.0 mi WNW 13.8 mph - N/A   Overcast